#timestamp,LO_Frequency,Hit,StdDev 
1674169215.1,286047001.8,N
1674169235.8,286047000.1,N
1674169255.7,286047001.7,N
1674169275.5,286046999.9,N
1674169295.4,286046999.0,N
1674169315.2,286047000.6,N
1674169335.0,286047002.8,N
1674169336.0,286047002.8,N
1674169355.8,286047000.5,N
1674169375.7,286047000.4,N
1674169395.5,286046998.5,N
1674169415.3,286047000.9,N
1674169435.2,286046998.8,N
1674169455.0,286047001.0,N
1674169455.9,286047001.0,N
1674169475.8,286046999.5,N
1674169495.6,286046998.7,N
1674169515.4,286047000.4,N
1674169535.3,286047000.1,N
1674169555.1,286046998.7,N
1674169575.8,286046996.5,N
1674169595.7,286047000.5,N
1674169615.5,286046999.8,N
1674169635.4,286047002.4,N
1674169655.2,286047001.8,N
1674169675.0,286047004.0,N
1674169675.9,286047004.0,N
1674169695.8,286046999.9,N
1674169715.6,286046999.1,N
1674169735.5,286047000.0,N
1674169755.3,286047002.3,N
1674169775.1,286047004.0,N
1674169795.9,286047003.7,N
1674169815.7,286047002.6,N
1674169835.6,286047002.2,N
1674169855.4,286046999.8,N
1674169875.2,286047002.4,N
1674169895.1,286047001.6,N
1674169896.0,286047001.6,N
1674169915.8,286047001.4,N
1674169935.6,286047001.7,N
1674169955.5,286047004.4,N
1674169975.3,286047002.6,N
1674169995.2,286047002.3,N
1674170015.9,286047001.7,N
1674170035.7,286047000.1,N
1674170055.6,286047001.7,N
1674170075.4,286047002.4,N
1674170095.2,286047001.2,N
1674170115.1,286047001.0,N
1674170116.0,286047001.0,N
1674170135.8,286047000.7,N
1674170155.7,286046998.7,N
1674170175.5,286046998.8,N
1674170195.3,286047001.1,N
1674170215.2,286046999.2,N
1674170235.0,286046999.0,N
1674170235.9,286046999.0,N
1674170255.8,286047000.7,N
1674170275.6,286047002.6,N
1674170295.4,286047001.4,N
1674170315.3,286047002.5,N
1674170335.1,286046996.5,N
1674170355.8,286046999.3,N
1674170375.7,286046998.6,N
1674170395.5,286047000.2,N
1674170415.3,286047002.5,N
1674170435.2,286047000.5,N
1674170455.0,286047000.4,N
1674170455.9,286047000.4,N
1674170475.8,286046998.1,N
1674170495.6,286046999.5,N
1674170515.4,286046997.2,N
1674170535.3,286046995.9,N
1674170555.1,286046997.7,N
1674170575.9,286046997.8,N
1674170595.7,286046995.0,N
1674170615.5,286046996.6,N
1674170635.4,286046999.3,N
1674170655.2,286047001.9,N
1674170675.0,286047002.4,N
1674170675.9,286047002.4,N
1674170695.8,286047001.6,N
1674170715.6,286046998.7,N
1674170735.5,286046999.3,N
1674170755.3,286047000.7,N
1674170775.1,286047000.6,N
1674170795.9,286047001.8,N
1674170815.7,286047003.0,N
1674170835.5,286047006.9,Y
1674170855.4,286047007.2,P
1674170875.2,286047005.3,N
1674170895.1,286047003.7,N
1674170896.0,286047003.7,N
1674170915.8,286047002.3,N
1674170935.6,286047002.0,N
1674170955.5,286047002.9,N
1674170975.3,286047003.9,N
1674170995.1,286047004.1,N
1674171015.9,286047003.4,N
1674171035.7,286047003.5,N
1674171055.6,286047003.9,N
1674171075.4,286047004.1,N
1674171095.2,286047007.6,Y
1674171115.1,286047003.8,P
1674171116.0,286047003.8,P
1674171135.8,286047002.5,P
1674171155.7,286047002.4,Y
1674171175.5,286046996.5,P
1674171195.3,286046996.6,N
1674171215.2,286046995.7,N
1674171235.0,286046996.3,N
1674171235.9,286046996.3,N
1674171255.8,286046995.6,N
1674171275.6,286046998.0,N
1674171295.4,286046995.5,N
1674171315.3,286046996.1,N
1674171335.1,286046995.1,N
1674171355.8,286046996.3,N
1674171375.7,286046995.5,N
1674171395.5,286046993.3,Y
1674171415.4,286046997.5,P
1674171435.2,286046995.1,P
1674171455.0,286046998.3,N
1674171455.9,286046998.3,N
1674171475.8,286046999.8,N
1674171495.6,286046999.7,N
1674171515.5,286046999.7,N
1674171535.3,286047001.4,N
1674171555.1,286047001.7,N
1674171575.9,286047000.9,N
1674171595.7,286046996.9,N
1674171615.5,286046999.3,N
1674171635.4,286046997.1,N
1674171655.2,286046999.4,N
1674171675.1,286046999.2,N
1674171676.0,286046999.2,N
1674171695.8,286046999.1,N
1674171715.6,286046998.8,N
1674171735.5,286046997.4,N
1674171755.3,286046997.7,N
1674171775.1,286046998.2,N
1674171795.9,286046997.3,N
1674171815.7,286046995.3,Y
1674171835.6,286046998.3,P
1674171855.4,286046999.3,P
1674171875.2,286046998.4,P
1674171895.1,286047000.8,N
1674171896.0,286047000.8,N
1674171915.8,286047001.2,N
1674171935.7,286046998.6,N
1674171955.5,286047000.3,N
1674171975.3,286046998.1,N
1674171995.2,286047000.1,N
1674172015.0,286047003.6,Y
1674172015.9,286047003.6,P
1674172035.7,286047001.4,N
1674172055.6,286047004.4,N
1674172075.4,286047003.8,N
1674172095.3,286047001.6,N
1674172115.1,286047004.4,N
1674172116.0,286047004.4,N
1674172135.8,286047004.4,N
1674172155.7,286047001.8,N
1674172175.5,286047001.7,N
1674172195.4,286047000.2,N
1674172215.2,286047002.8,N
1674172235.0,286047001.9,N
1674172235.9,286047001.9,N
1674172255.8,286047002.2,N
1674172275.6,286047002.0,N
1674172295.5,286047000.0,N
1674172315.3,286047001.8,N
1674172335.1,286047003.1,N
1674172355.9,286047004.0,N
1674172375.7,286046999.7,N
1674172395.5,286046999.9,N
1674172415.4,286047000.5,N
1674172435.2,286047002.8,N
1674172455.1,286046996.9,N
1674172456.0,286046996.9,N
1674172475.8,286046997.7,N
1674172495.6,286047000.7,N
1674172515.5,286046998.2,N
1674172535.3,286046998.2,N
1674172555.1,286047002.8,N
1674172575.9,286047000.6,N
1674172595.7,286047002.5,N
1674172615.6,286047002.3,N
1674172635.4,286046999.7,N
1674172655.2,286047002.7,N
1674172675.1,286046999.7,N
1674172676.0,286046999.7,N
1674172695.8,286047000.6,N
1674172715.6,286047000.9,N
1674172735.5,286046998.2,N
1674172755.3,286046996.5,N
1674172775.2,286047002.1,N
1674172795.9,286047002.3,N
